Home > Time Zones > World Clock > Weather > Japan > Kobe > Past weeks

Flag for Japan Weather past 2 weeks in Kobe, Japan

Now
55 °F

Passing clouds.


Feels Like: 55 °F
Forecast: 39 / 62 °F
Wind: 1 mph from North

Location: Osaka International Airport

Current Time: Mar 29, 2015 at 9:58:23 PM

Latest Report: Mar 29, 2015 at 8:00 PM


Visibility: N/A

Pressure: 30.01 "Hg

Humidity: 88%

Dew point: 52 °F

Location of KobeLocation

Historic Weather in Kobe — Graph

°F

Kobe temperature yesterday

Maximum temperature yesterday: 68 °F (at 2:00 PM)
Minimum temperature yesterday: 45 °F (at 5:00 AM)
Average temperature yesterday: 59 °F

Past Weeks' High & Low Weather Summary

 TemperatureHumidityPressure
High70 °F (Mar 18, 1:00 PM)100% (Mar 17, 5:00 AM)30.57 "Hg (Mar 17, 5:00 AM)
Low34 °F (Mar 26, 6:00 AM)20% (Mar 27, 3:00 PM)29.71 "Hg (Mar 19, 11:00 AM)
Average54 °F60%30.11 "Hg
* Reported Mar 14 8:00 PM — Mar 29 8:00 PM, Kobe, Weather by CustomWeather, © 2015

Note: Actual official high and low records may vary slightly from our data, if they occured in-between our weather recording intervals... More about our weather records

Advertising

Kobe weather history for previous 24 hours

 ConditionsComfort  
Time TempWeatherWind HumidityBarometerVisibility
8:00 PM
Sun, Mar 29
55 °FPassing clouds.1 mph88%30.01 "HgN/A
7:00 PM55 °FPassing clouds.2 mph88%29.98 "HgN/A
6:00 PM59 °FScattered clouds.3 mph77%29.95 "HgN/A
5:00 PM59 °FBroken clouds.2 mph77%29.95 "HgN/A
4:00 PM59 °FBroken clouds.3 mph82%29.95 "Hg6 mi
3:00 PM57 °FBroken clouds.2 mph82%29.95 "Hg5 mi
2:00 PM57 °FLight rain. Fog.6 mph88%29.98 "Hg4 mi
1:00 PM55 °FLight rain. Fog.8 mph94%29.98 "Hg4 mi
12:00 PM55 °FLight rain. Fog.1 mph88%30.01 "Hg4 mi
11:00 AM55 °FLight rain. Broken clouds.5 mph88%30.01 "Hg4 mi
10:00 AM55 °FLight rain. Broken clouds.2 mph82%30.04 "HgN/A
9:00 AM55 °FLight rain. Mostly cloudy.3 mph82%30.01 "HgN/A
8:00 AM55 °FLight rain. Broken clouds.5 mph77%30.01 "HgN/A
7:00 AM54 °FLight rain. Broken clouds.2 mph77%30.01 "HgN/A
6:00 AM52 °FPartly sunny.2 mph82%30.01 "HgN/A
5:00 AM55 °FPartly cloudy.3 mph77%30.01 "HgN/A
Weather by CustomWeather, © 2015

See weather overviewHow to use our weather pages